Location: Daytona Beach
(29.2106°N, 81.0231°W)
Time: 09:51:21
(UTC-04:00)

PSAT 2 - Pass Details

Date: 27 September 2021
Orbit: 299 x 722 km, 28.5° (Epoch: 23 October)

Event Time Altitude Azimuth Distance (km) Brightness Sun altitude
Rises 20:11:44 0° 275° (W) 3,051 ? -13.4°
Reaches altitude 10° 20:14:12 10° 269° (W) 2,171 ? -13.9°
Maximum altitude 20:19:07 43° 199° (SSW) 1,009 ? -15.0°
Enters shadow 20:22:42 18° 135° (SE) 1,736 ? -15.8°
